Regional Weather Roundup
Issued by NWS Kansas City/Pleasant Hill, MO

Home | Current Version | Previous Version | Text Only | Print | Product List | Glossary On
Versions: 1 2 3 4 5 6 7 8 9 10 11 12 13 14 15 16 17 18 19 20 21 22 23 24 25 26 27 28 29 30 31 32 33 34 35 36 37 38 39 40 41 42 43 44 45 46 47 48 49 50
000
ASUS43 KEAX 021310
RWREAX

WEATHER ROUNDUP FOR EASTERN KANSAS AND NORTHWEST MISSOURI
NATIONAL WEATHER SERVICE KANSAS CITY/PLEASANT HILL MO
800 AM CDT THU OCT 02 2014

KSZ040-057-103>105-MOZ028-029-037-043-021400-
...KANSAS CITY METROPOLITAN AREA...

CITY           SKY/WX    TMP DP  RH WIND       PRES   REMARKS
K.C. INTL      NOT AVBL
K.C. DOWNTOWN  NOT AVBL
LEES SUMMIT    NOT AVBL
OLATHE - IXD   NOT AVBL
OLATHE - OJC   NOT AVBL

$$

MOZ001>008-011>017-020>025-030>033-038>040-044>046-053-054-021400-
...NORTHERN AND CENTRAL MISSOURI...

CITY           SKY/WX    TMP DP  RH WIND       PRES   REMARKS
ST. JOSEPH     NOT AVBL
MOSBY          CLOUDY    64  64 100 SE6       29.74F
WHITEMAN AFB   LGT RAIN  65  64  96 SW8       29.81R
CLINTON        NOT AVBL
SEDALIA        NOT AVBL
WARSAW         NOT AVBL
MARSHALL       TSTM      68  68 100 SW5G18    29.81F
CHILLICOTHE    NOT AVBL
MOBERLY        RAIN      64  61  88 SE14G24   29.82S
KIRKSVILLE     NOT AVBL

$$

MOZ041-047>049-056>058-063>065-088>090-097-021400-
...EASTERN AND SOUTHERN MISSOURI...

CITY           SKY/WX    TMP DP  RH WIND       PRES   REMARKS
ST. LOUIS INTL NOT AVBL
MEXICO         TSTM     N/A N/A N/A CALM      29.89R
HANNIBAL       MIX PCPN  64  63  94 S9        29.84R
LEBANON        CLOUDY    70  68  94 SE7       29.86R
NEVADA         CLOUDY    66  63  88 SE6       29.81F

$$

IAZ060-094-KSZ022-034>040-054-083-096-NEZ052-066-093-021400-
...KANSAS...SOUTHEAST NEBRASKA AND IOWA...

CITY           SKY/WX    TMP DP  RH WIND       PRES   REMARKS
TOPEKA         NOT AVBL
EMPORIA        CLOUDY    70  68  93 S15       29.74R
CHANUTE        MOCLDY    70  68  93 S5        29.75F
WICHITA        RAIN      67  64  90 N20       29.74R FOG

$$



USA.gov is the U.S. government's official web portal to all federal, state and local government web resources and services.